Weather History for Las Cruces, NM

Change the Weather History Date:

Tuesday, August 27, 2013

  Actual Average Record
Temperature  
Mean Temperature 76 °F -  
Max Temperature 86 °F 89 °F 100 °F (2002)
Min Temperature 66 °F 66 °F 64 °F (2008)
Cooling Degree Days 11    
Growing Degree Days 26 (Base 50)    
Moisture  
Dew Point 55 °F    
Average Humidity 47    
Maximum Humidity 67    
Minimum Humidity 30    
Precipitation  
Precipitation 0.00 in - - ()
Sea Level Pressure  
Sea Level Pressure 30.15 in    
Wind  
Wind Speed 8 mph (SE)    
Max Wind Speed 15 mph    
Max Gust Speed 21 mph    
Visibility 10 miles    
Events      
Averages and records for this station are not official NWS values.
T = Trace of Precipitation, MM = Missing Value Source: NWS Daily Summary

Daily Weather History Graph

Daily Weather History Graph

Search for Another Location

Airport:

Trip Planner

Search our weather history database for the weather conditions in past years. The results will help you decide how hot, cold, wet, or windy it might be!

Date:

Astronomy

Aug. 27, 2013 Rise Set
Actual Time 6:39 AM MDT 7:37 PM MDT
Civil Twilight 6:14 AM MDT 8:02 PM MDT
Nautical Twilight 5:44 AM MDT 8:32 PM MDT
Astronomical Twilight 5:14 AM MDT 9:03 PM MDT
Moon 11:59 PM MDT (8/27) 1:14 PM MDT (8/27)
Length of Visible Light 13h 48m
Length of Day
12h 58m
Waning Gibbous, 56% of the Moon is Illuminated
Aug 27
Waning Gibbous
Aug 28
Last Quarter
Sep 5
New
Sep 12
First Quarter
Sep 19
Full

Hourly Weather History & Observations

Time (MDT) Temp. Heat Index Dew Point Humidity Pressure Visibility Wind Dir Wind Speed Gust Speed Precip Events Conditions
12:15 AM 76.1 °F - 50.9 °F 41% 30.17 in 10.0 mi ESE 11.5 mph - N/A   Clear
12:35 AM 75.2 °F - 51.1 °F 43% 30.16 in 10.0 mi ESE 8.1 mph - N/A   Clear
12:55 AM 74.7 °F - 51.6 °F 44% 30.17 in 10.0 mi ESE 9.2 mph - N/A   Clear
1:15 AM 74.5 °F - 52.0 °F 45% 30.16 in 10.0 mi ESE 9.2 mph - N/A   Clear
1:35 AM 74.3 °F - 52.3 °F 46% 30.16 in 10.0 mi ESE 9.2 mph - N/A   Clear
1:55 AM 73.8 °F - 52.7 °F 48% 30.16 in 10.0 mi SE 8.1 mph - N/A   Clear
2:15 AM 72.7 °F - 52.9 °F 50% 30.15 in 10.0 mi SE 5.8 mph - N/A   Clear
2:35 AM 71.2 °F - 53.1 °F 53% 30.15 in 10.0 mi SE 4.6 mph - N/A   Clear
2:55 AM 71.1 °F - 53.2 °F 53% 30.14 in 10.0 mi SE 6.9 mph - N/A   Clear
3:15 AM 71.1 °F - 53.6 °F 54% 30.14 in 10.0 mi SE 6.9 mph - N/A   Clear
3:35 AM 71.2 °F - 53.8 °F 54% 30.14 in 10.0 mi SE 8.1 mph - N/A   Clear
3:55 AM 72.0 °F - 54.3 °F 54% 30.14 in 10.0 mi SE 8.1 mph - N/A   Clear
4:15 AM 72.3 °F - 54.5 °F 53% 30.14 in 10.0 mi SE 5.8 mph - N/A   Clear
4:35 AM 71.1 °F - 54.7 °F 56% 30.15 in 10.0 mi SE 6.9 mph - N/A   Clear
4:55 AM 70.3 °F - 55.0 °F 58% 30.15 in 10.0 mi SE 5.8 mph - N/A   Clear
5:15 AM 70.3 °F - 55.2 °F 59% 30.15 in 10.0 mi SE 5.8 mph - N/A   Clear
5:35 AM 69.1 °F - 55.4 °F 62% 30.15 in 10.0 mi SE 4.6 mph - N/A   Clear
5:55 AM 68.2 °F - 55.4 °F 64% 30.16 in 10.0 mi SE 5.8 mph - N/A   Clear
6:15 AM 67.6 °F - 55.6 °F 65% 30.16 in 10.0 mi SSE 4.6 mph - N/A   Clear
6:35 AM 66.7 °F - 55.4 °F 67% 30.17 in 10.0 mi ESE 5.8 mph - N/A   Clear
6:55 AM 68.4 °F - 55.8 °F 64% 30.17 in 10.0 mi ESE 4.6 mph - N/A   Clear
7:15 AM 69.4 °F - 56.3 °F 63% 30.18 in 10.0 mi SE 3.5 mph - N/A   Clear
7:35 AM 69.1 °F - 56.7 °F 65% 30.19 in 10.0 mi ESE 4.6 mph - N/A   Clear
7:55 AM 72.1 °F - 56.7 °F 58% 30.19 in 10.0 mi East 3.5 mph - N/A   Clear
8:15 AM 73.4 °F - 57.0 °F 56% 30.20 in 10.0 mi East 3.5 mph - N/A   Clear
8:35 AM 74.8 °F - 57.2 °F 54% 30.20 in 10.0 mi ESE 9.2 mph - N/A   Clear
8:55 AM 76.6 °F - 57.7 °F 52% 30.20 in 10.0 mi East 9.2 mph - N/A   Clear
9:15 AM 76.8 °F - 58.1 °F 52% 30.20 in 10.0 mi ESE 10.4 mph - N/A   Clear
9:35 AM 77.0 °F - 58.5 °F 53% 30.21 in 10.0 mi ESE 11.5 mph - N/A   Clear
9:55 AM 78.4 °F - 58.8 °F 51% 30.21 in 10.0 mi ESE 11.5 mph 17.3 mph N/A   Clear
10:15 AM 80.4 °F 80.8 °F 58.1 °F 46% 30.21 in 10.0 mi SE 12.7 mph 16.1 mph N/A   Scattered Clouds
10:35 AM 80.1 °F 80.6 °F 58.1 °F 47% 30.21 in 10.0 mi ESE 10.4 mph - N/A   Scattered Clouds
10:55 AM 80.2 °F 80.6 °F 57.9 °F 46% 30.21 in 10.0 mi ESE 13.8 mph 17.3 mph N/A   Clear
11:15 AM 79.7 °F - 57.6 °F 47% 30.21 in 10.0 mi ESE 11.5 mph 18.4 mph N/A   Clear
11:35 AM 81.1 °F 81.2 °F 57.2 °F 44% 30.20 in 10.0 mi ESE 11.5 mph 18.4 mph N/A   Clear
11:55 AM 84.0 °F 83.2 °F 56.8 °F 39% 30.19 in 10.0 mi SE 13.8 mph 20.7 mph N/A   Clear
12:15 PM 81.7 °F 81.3 °F 55.9 °F 41% 30.19 in 10.0 mi ESE 12.7 mph - N/A   Scattered Clouds
12:35 PM 83.5 °F 82.5 °F 55.4 °F 38% 30.18 in 10.0 mi ESE 12.7 mph 17.3 mph N/A   Scattered Clouds
12:55 PM 83.8 °F 82.7 °F 55.0 °F 37% 30.18 in 10.0 mi East 10.4 mph 17.3 mph N/A   Scattered Clouds
1:15 PM 82.6 °F 82.0 °F 55.9 °F 40% 30.17 in 10.0 mi ENE 8.1 mph - N/A   Mostly Cloudy
1:35 PM 82.8 °F 82.1 °F 56.1 °F 40% 30.16 in 10.0 mi SE 8.1 mph - N/A   Overcast
1:55 PM 84.6 °F 83.1 °F 54.0 °F 35% 30.16 in 10.0 mi ESE 8.1 mph - N/A   Mostly Cloudy
2:15 PM 83.3 °F 82.3 °F 55.0 °F 38% 30.15 in 10.0 mi ESE 9.2 mph 16.1 mph N/A   Mostly Cloudy
2:35 PM 85.6 °F 83.8 °F 53.6 °F 33% 30.14 in 10.0 mi East 8.1 mph - N/A   Scattered Clouds
2:55 PM 86.5 °F - 52.9 °F 31% 30.14 in 10.0 mi East 11.5 mph 16.1 mph N/A   Scattered Clouds
3:15 PM 86.0 °F 84.2 °F 53.6 °F 33% 30.13 in 10.0 mi ESE 15.0 mph - N/A   Mostly Cloudy
3:35 PM 85.3 °F 83.8 °F 54.5 °F 35% 30.12 in 10.0 mi ESE 11.5 mph - N/A   Scattered Clouds
3:55 PM 84.9 °F - 52.0 °F 32% 30.12 in 10.0 mi SE 10.4 mph - N/A   Scattered Clouds
4:15 PM 84.2 °F - 51.4 °F 32% 30.11 in 10.0 mi ESE 9.2 mph - N/A   Overcast
4:35 PM 85.1 °F - 50.5 °F 30% 30.11 in 10.0 mi East 8.1 mph - N/A   Overcast
4:55 PM 84.6 °F - 51.1 °F 31% 30.11 in 10.0 mi East 11.5 mph 16.1 mph N/A   Overcast
5:15 PM 84.6 °F - 52.5 °F 33% 30.10 in 10.0 mi SE 9.2 mph 19.6 mph N/A   Scattered Clouds
5:35 PM 84.2 °F - 51.8 °F 33% 30.10 in 10.0 mi SE 11.5 mph - N/A   Clear
5:55 PM 83.3 °F 82.1 °F 53.6 °F 36% 30.09 in 10.0 mi SE 12.7 mph 17.3 mph N/A   Clear
6:15 PM 82.0 °F 81.4 °F 54.7 °F 39% 30.08 in 10.0 mi SSE 11.5 mph 16.1 mph N/A   Clear
6:35 PM 83.3 °F 82.1 °F 53.4 °F 36% 30.09 in 10.0 mi SE 12.7 mph - N/A   Clear
6:55 PM 82.0 °F 81.3 °F 54.1 °F 38% 30.09 in 10.0 mi SE 8.1 mph - N/A   Clear
7:15 PM 81.5 °F 80.9 °F 54.3 °F 39% 30.09 in 10.0 mi SE 8.1 mph - N/A   Clear
7:35 PM 79.9 °F - 54.7 °F 42% 30.10 in 10.0 mi SE 4.6 mph - N/A   Clear
7:55 PM 78.8 °F - 54.9 °F 44% 30.10 in 10.0 mi SSE 3.5 mph - N/A   Clear
8:15 PM 77.9 °F - 55.2 °F 45% 30.10 in 10.0 mi Calm Calm - N/A   Scattered Clouds
8:35 PM 77.5 °F - 55.2 °F 46% 30.11 in 10.0 mi Calm Calm - N/A   Mostly Cloudy
8:55 PM 78.1 °F - 55.0 °F 45% 30.11 in 10.0 mi ESE 5.8 mph - N/A   Mostly Cloudy
9:15 PM 78.6 °F - 54.5 °F 43% 30.12 in 10.0 mi SE 11.5 mph 17.3 mph N/A   Mostly Cloudy
9:35 PM 77.2 °F - 57.4 °F 50% 30.14 in 10.0 mi SSE 11.5 mph - N/A   Scattered Clouds
9:55 PM 75.4 °F - 56.8 °F 52% 30.14 in 10.0 mi SSE 9.2 mph - N/A   Scattered Clouds
10:15 PM 75.0 °F - 57.2 °F 54% 30.15 in 10.0 mi South 5.8 mph - N/A   Scattered Clouds
10:35 PM 74.7 °F - 57.7 °F 55% 30.15 in 10.0 mi South 5.8 mph - N/A   Clear
10:55 PM 74.3 °F - 57.7 °F 56% 30.15 in 10.0 mi SSE 4.6 mph - N/A   Clear
11:15 PM 73.6 °F - 58.1 °F 58% 30.16 in 10.0 mi SE 3.5 mph - N/A   Scattered Clouds
11:35 PM 73.9 °F - 58.1 °F 58% 30.16 in 10.0 mi ESE 4.6 mph - N/A   Mostly Cloudy
11:55 PM 73.2 °F - 58.8 °F 61% 30.15 in 10.0 mi SE 4.6 mph - N/A   Scattered Clouds